Location: Ammerl�gen
(47.2167°N, 9.6000°E)
Time: 10:20:49
(UTC+00:00)

Resurs 01 Rocket - Pass Details

Date: 21 April 2021
Orbit: 634 x 644 km, 98.0° (Epoch: 06 May)

Event Time Altitude Azimuth Distance (km) Brightness Sun altitude
Exits shadow 20:22:49 17° 194° (SSW) 1,607 3.4 -18.7°
Maximum altitude 20:25:56 45° 261° (W) 879 2.5 -19.1°
Drops below altitude 10° 20:30:14 10° 335° (NNW) 2,051 5.3 -19.6°
Sets 20:32:32 0° 342° (NNW) 2,966 6.2 -19.8°
